User: anonymous   Login
Location: Unspecified
(0.0000°N, 0.0000°E)
Time: 05:26:43
(UTC+00:00)
Language:

Tubsat B - Orbit

View from above orbital plane
View from above orbital plane
View from above satellite
View from above satellite

Ground track
Ground track

The orbit data is extracted from the following two-line orbital elements,

1 22970U 94003B   18018.33971662 -.00000064 +00000-0 -19759-3 0  9997
2 22970 082.5627 095.4498 0015405 328.8910 101.3622 13.16958057152645
Epoch (UTC): 18 January 2018 08:09:11
Eccentricity: 0.0015405
inclination: 82.5627°
perigee height: 1184 km
apogee height: 1208 km
right ascension of ascending node: 95.4498°
argument of perigee: 328.8910°
revolutions per day: 13.16958057
mean anomaly at epoch: 101.3622°
orbit number at epoch: 15264

The dashed part of the orbit path shows where the satellite is in the earth's shadow,  

DLR